User: anonymous   Login
Location: Theydon Bois
(51.6750°N, 0.1050°E)
Time: 05:33:20
(UTC+00:00)
Language:

Cosmos 1680 Rocket - Orbit

View from above orbital plane
View from above orbital plane
View from above satellite
View from above satellite

Ground track
Ground track

The orbit data is extracted from the following two-line orbital elements,

1 16012U 85079B   18051.29778975 -.00000094  00000-0 -23239-4 0  9996
2 16012  74.0575  39.9133 0016200 244.0203 115.9282 14.36272234699413
Epoch (UTC): 20 February 2018 07:08:49
Eccentricity: 0.0016200
inclination: 74.0575°
perigee height: 759 km
apogee height: 782 km
right ascension of ascending node: 39.9133°
argument of perigee: 244.0203°
revolutions per day: 14.36272234
mean anomaly at epoch: 115.9282°
orbit number at epoch: 69941

The dashed part of the orbit path shows where the satellite is in the earth's shadow,  

DLR